,,,PA_Meas_PMT16A,,PR_Meas_QMR101_102,,RH_Meas_QMH101,,SR_Meas_QMS101,,TA_Meas_QMH101,,GenWind,,GenWind,
date,time,status,PA,status,PR,status,RH,status,SR,status,TA,status,DirAvg,status,SpdAvg,
2011-12-29, 00:00:04,VALID,1001.03,VALID,0,VALID,93.8291,VALID,0,VALID,23.8183,VALID,109,VALID,0.49375,
2011-12-29, 00:01:04,VALID,1001.04,VALID,0,VALID,93.8214,VALID,0,VALID,23.8183,VALID,109,VALID,0.428516,
2011-12-29, 00:02:04,VALID,1001.03,VALID,0,VALID,93.8443,VALID,0,VALID,23.8183,VALID,109,VALID,0.213672,
2011-12-29, 00:03:04,VALID,1000.98,VALID,0,VALID,93.852,VALID,0,VALID,23.8183,VALID,109,VALID,0.0496094,
2011-12-29, 00:04:04,VALID,1000.97,VALID,0,VALID,93.852,VALID,0,VALID,23.797,VALID,109,VALID,0,
2011-12-29, 00:05:04,VALID,1000.96,VALID,0,VALID,93.8596,VALID,0,VALID,23.8183,VALID,109,VALID,0,
2011-12-29, 00:06:04,VALID,1000.95,VALID,0,VALID,93.852,VALID,0,VALID,23.8183,VALID,109,VALID,0.494922,
2011-12-29, 00:07:04,VALID,1000.94,VALID,0,VALID,93.8748,VALID,0,VALID,23.8378,VALID,109,VALID,0.422266,
2011-12-29, 00:08:04,VALID,1000.95,VALID,0,VALID,93.8672,VALID,0,VALID,23.8183,VALID,109,VALID,0.471875,
2011-12-29, 00:09:04,VALID,1000.94,VALID,0,VALID,93.8748,VALID,0,VALID,23.8183,VALID,109,VALID,0.375781,
2011-12-29, 00:10:04,VALID,1000.93,VALID,0,VALID,93.8748,VALID,0,VALID,23.8165,VALID,64,VALID,0.845312,
2011-12-29, 00:11:04,VALID,1000.94,VALID,0,VALID,93.8672,VALID,0,VALID,23.8183,VALID,62,VALID,0.679688,
2011-12-29, 00:12:04,VALID,1000.95,VALID,0,VALID,93.852,VALID,0.104696,VALID,23.8378,VALID,61,VALID,0.638281,
2011-12-29, 00:13:04,VALID,1000.9,VALID,0,VALID,93.8672,VALID,0,VALID,23.8183,VALID,42,VALID,0.809766,
2011-12-29, 00:14:04,VALID,1000.87,VALID,0,VALID,93.8443,VALID,0,VALID,23.7988,VALID,40,VALID,0.761719,
2011-12-29, 00:15:04,VALID,1000.86,VALID,0,VALID,93.8138,VALID,0,VALID,23.7988,VALID,40,VALID,0.889453,
2011-12-29, 00:16:04,VALID,1000.86,VALID,0,VALID,93.8291,VALID,0,VALID,23.7793,VALID,40,VALID,0.903906,
2011-12-29, 00:17:04,VALID,1000.81,VALID,0,VALID,93.8214,VALID,0,VALID,23.7775,VALID,52,VALID,1.06562,
2011-12-29, 00:18:04,VALID,1000.82,VALID,0,VALID,93.8367,VALID,0.104696,VALID,23.7775,VALID,54,VALID,0.580859,
2011-12-29, 00:19:04,VALID,1000.78,VALID,0,VALID,93.8443,VALID,0,VALID,23.7988,VALID,54,VALID,0.601953,
2011-12-29, 00:20:04,VALID,1000.74,VALID,0,VALID,93.8367,VALID,0,VALID,23.797,VALID,54,VALID,0.576953,
2011-12-29, 00:21:04,VALID,1000.75,VALID,0,VALID,93.8291,VALID,0,VALID,23.8183,VALID,62,VALID,0.344922,
2011-12-29, 00:22:04,VALID,1000.77,VALID,0,VALID,93.8367,VALID,0,VALID,23.7988,VALID,62,VALID,0.493359,
2011-12-29, 00:23:04,VALID,1000.78,VALID,0,VALID,93.8291,VALID,0,VALID,23.797,VALID,62,VALID,0.459375,
2011-12-29, 00:24:04,VALID,1000.72,VALID,0,VALID,93.8214,VALID,0,VALID,23.8183,VALID,62,VALID,0.588281,
2011-12-29, 00:25:04,VALID,1000.71,VALID,0,VALID,93.8214,VALID,0,VALID,23.8378,VALID,62,VALID,0.474219,
2011-12-29, 00:26:04,VALID,1000.68,VALID,0,VALID,93.8214,VALID,0,VALID,23.8183,VALID,62,VALID,0.405859,
2011-12-29, 00:27:04,VALID,1000.67,VALID,0,VALID,93.8138,VALID,0,VALID,23.8378,VALID,62,VALID,0.316016,
2011-12-29, 00:28:04,VALID,1000.67,VALID,0,VALID,93.8291,VALID,0,VALID,23.8378,VALID,62,VALID,0.186719,
2011-12-29, 00:29:04,VALID,1000.62,VALID,0,VALID,93.7909,VALID,0,VALID,23.8378,VALID,62,VALID,0,
2011-12-29, 00:30:04,VALID,1000.63,VALID,0,VALID,93.8062,VALID,0,VALID,23.8378,VALID,62,VALID,0,
2011-12-29, 00:31:04,VALID,1000.62,VALID,0,VALID,93.7833,VALID,0,VALID,23.8378,VALID,62,VALID,0.0335938,
2011-12-29, 00:32:04,VALID,1000.6,VALID,0,VALID,93.7985,VALID,0,VALID,23.8165,VALID,62,VALID,0,
2011-12-29, 00:33:04,VALID,1000.57,VALID,0,VALID,93.8062,VALID,0,VALID,23.8165,VALID,62,VALID,0.21875,
2011-12-29, 00:34:04,VALID,1000.59,VALID,0,VALID,93.7985,VALID,0,VALID,23.8378,VALID,62,VALID,0.192188,
2011-12-29, 00:35:04,VALID,1000.56,VALID,0,VALID,93.8214,VALID,0,VALID,23.8573,VALID,62,VALID,0.615625,
2011-12-29, 00:36:04,VALID,1000.59,VALID,0,VALID,93.8367,VALID,0,VALID,23.8573,VALID,62,VALID,0.481641,
2011-12-29, 00:37:04,VALID,1000.57,VALID,0,VALID,93.8367,VALID,0,VALID,23.836,VALID,62,VALID,0.462891,
2011-12-29, 00:38:04,VALID,1000.56,VALID,0,VALID,93.8291,VALID,0.104696,VALID,23.8573,VALID,62,VALID,0.375,
2011-12-29, 00:39:04,VALID,1000.53,VALID,0,VALID,93.8214,VALID,0,VALID,23.8555,VALID,62,VALID,0.119531,
2011-12-29, 00:40:04,VALID,1000.51,VALID,0,VALID,93.8138,VALID,0,VALID,23.8555,VALID,62,VALID,0.290625,
2011-12-29, 00:41:04,VALID,1000.47,VALID,0,VALID,93.7909,VALID,0,VALID,23.836,VALID,47,VALID,0.622266,
2011-12-29, 00:42:04,VALID,1000.48,VALID,0,VALID,93.7985,VALID,0.104696,VALID,23.836,VALID,44,VALID,0.476953,
2011-12-29, 00:43:04,VALID,1000.47,VALID,0,VALID,93.7833,VALID,0,VALID,23.8378,VALID,44,VALID,0.488672,
2011-12-29, 00:44:04,VALID,1000.45,VALID,0,VALID,93.7757,VALID,0,VALID,23.8165,VALID,44,VALID,0.426172,
2011-12-29, 00:45:04,VALID,1000.43,VALID,0,VALID,93.7985,VALID,0,VALID,23.8378,VALID,44,VALID,0.355469,
2011-12-29, 00:46:04,VALID,1000.44,VALID,0,VALID,93.7833,VALID,0,VALID,23.836,VALID,44,VALID,0.362109,
2011-12-29, 00:47:04,VALID,1000.41,VALID,0,VALID,93.7604,VALID,0,VALID,23.8165,VALID,44,VALID,0.490234,
2011-12-29, 00:48:04,VALID,1000.4,VALID,0,VALID,93.7604,VALID,0,VALID,23.8183,VALID,44,VALID,0.421484,
2011-12-29, 00:49:04,VALID,1000.39,VALID,0,VALID,93.7833,VALID,0.104696,VALID,23.8378,VALID,44,VALID,0.566016,
2011-12-29, 00:50:04,VALID,1000.42,VALID,0,VALID,93.7909,VALID,0,VALID,23.8183,VALID,44,VALID,0.715625,
2011-12-29, 00:51:04,VALID,1000.38,VALID,0,VALID,93.768,VALID,0,VALID,23.797,VALID,44,VALID,0.856641,
2011-12-29, 00:52:04,VALID,1000.42,VALID,0,VALID,93.7604,VALID,0.104696,VALID,23.797,VALID,44,VALID,0.939062,
2011-12-29, 00:53:04,VALID,1000.37,VALID,0,VALID,93.768,VALID,0,VALID,23.8183,VALID,44,VALID,0.872266,
2011-12-29, 00:54:04,VALID,1000.34,VALID,0,VALID,93.768,VALID,0,VALID,23.7988,VALID,44,VALID,0.651172,
2011-12-29, 00:55:04,VALID,1000.34,VALID,0,VALID,93.7909,VALID,0,VALID,23.7988,VALID,44,VALID,0.608594,
2011-12-29, 00:56:04,VALID,1000.29,VALID,0,VALID,93.7985,VALID,0,VALID,23.7988,VALID,44,VALID,0.660547,
2011-12-29, 00:57:04,VALID,1000.3,VALID,0,VALID,93.7833,VALID,0.104696,VALID,23.7775,VALID,44,VALID,0.614844,
2011-12-29, 00:58:04,VALID,1000.3,VALID,0,VALID,93.8214,VALID,0,VALID,23.8183,VALID,44,VALID,0.422656,
2011-12-29, 00:59:04,VALID,1000.27,VALID,0,VALID,93.8291,VALID,0,VALID,23.8183,VALID,44,VALID,0.39375,
2011-12-29, 01:00:04,VALID,1000.23,VALID,0,VALID,93.8291,VALID,0,VALID,23.8183,VALID,44,VALID,0.583203,
2011-12-29, 01:01:04,VALID,1000.21,VALID,0,VALID,93.8291,VALID,0,VALID,23.7988,VALID,44,VALID,0.701172,
2011-12-29, 01:02:04,VALID,1000.15,VALID,0,VALID,93.852,VALID,0,VALID,23.7988,VALID,44,VALID,0.453125,
2011-12-29, 01:03:04,VALID,1000.15,VALID,0,VALID,93.852,VALID,0,VALID,23.8183,VALID,62,VALID,0.696875,
2011-12-29, 01:04:04,VALID,1000.14,VALID,0,VALID,93.8596,VALID,0.104696,VALID,23.7988,VALID,62,VALID,0.717578,
2011-12-29, 01:05:04,VALID,1000.11,VALID,0,VALID,93.8291,VALID,0,VALID,23.797,VALID,62,VALID,0.603516,
2011-12-29, 01:06:04,VALID,1000.09,VALID,0,VALID,93.8672,VALID,0,VALID,23.7988,VALID,62,VALID,0.478125,
2011-12-29, 01:07:04,VALID,1000.05,VALID,0,VALID,93.852,VALID,0,VALID,23.7775,VALID,62,VALID,0.44375,
2011-12-29, 01:08:04,VALID,1000,VALID,0,VALID,93.8672,VALID,0,VALID,23.7793,VALID,62,VALID,0.347656,
2011-12-29, 01:09:04,VALID,1000.01,VALID,0,VALID,93.8596,VALID,0,VALID,23.7793,VALID,62,VALID,0.00820312,
2011-12-29, 01:10:04,VALID,999.998,VALID,0,VALID,93.8443,VALID,0,VALID,23.7793,VALID,62,VALID,0.157031,
2011-12-29, 01:11:04,VALID,1000.01,VALID,0,VALID,93.8291,VALID,0,VALID,23.7793,VALID,62,VALID,0.255859,
2011-12-29, 01:12:04,VALID,999.985,VALID,0,VALID,93.8062,VALID,0,VALID,23.7579,VALID,62,VALID,0.198437,
2011-12-29, 01:13:04,VALID,999.986,VALID,0,VALID,93.8062,VALID,0,VALID,23.7579,VALID,62,VALID,0.339844,
2011-12-29, 01:14:04,VALID,999.978,VALID,0,VALID,93.7909,VALID,0,VALID,23.7793,VALID,62,VALID,0.441016,
2011-12-29, 01:15:04,VALID,999.952,VALID,0,VALID,93.7985,VALID,0,VALID,23.7384,VALID,62,VALID,0.55,
2011-12-29, 01:16:04,VALID,999.902,VALID,0,VALID,93.8062,VALID,0,VALID,23.7597,VALID,62,VALID,0.486719,
2011-12-29, 01:17:04,VALID,999.892,VALID,0,VALID,93.8214,VALID,0,VALID,23.7384,VALID,62,VALID,0.479297,
2011-12-29, 01:18:04,VALID,999.905,VALID,0,VALID,93.8062,VALID,0,VALID,23.7597,VALID,62,VALID,0.331641,
2011-12-29, 01:19:04,VALID,999.887,VALID,0,VALID,93.7909,VALID,0,VALID,23.7597,VALID,62,VALID,0.466406,
2011-12-29, 01:20:04,VALID,999.852,VALID,0,VALID,93.7833,VALID,0,VALID,23.7597,VALID,62,VALID,0.368359,
2011-12-29, 01:21:04,VALID,999.862,VALID,0,VALID,93.7528,VALID,0,VALID,23.7597,VALID,62,VALID,0.445703,
2011-12-29, 01:22:04,VALID,999.873,VALID,0,VALID,93.7375,VALID,0,VALID,23.7597,VALID,62,VALID,0.382813,
2011-12-29, 01:23:04,VALID,999.844,VALID,0,VALID,93.6917,VALID,0,VALID,23.7402,VALID,62,VALID,0.327734,
2011-12-29, 01:24:04,VALID,999.874,VALID,0,VALID,93.6383,VALID,0,VALID,23.7207,VALID,62,VALID,0.493359,
2011-12-29, 01:25:04,VALID,999.883,VALID,0,VALID,93.6307,VALID,0,VALID,23.7207,VALID,62,VALID,0.654297,
2011-12-29, 01:26:04,VALID,999.894,VALID,0,VALID,93.6154,VALID,0,VALID,23.7189,VALID,62,VALID,0.497266,
2011-12-29, 01:27:04,VALID,999.917,VALID,0,VALID,93.6231,VALID,0,VALID,23.7384,VALID,39,VALID,0.711328,
2011-12-29, 01:28:04,VALID,999.914,VALID,0,VALID,93.646,VALID,0,VALID,23.7597,VALID,39,VALID,0.786719,
2011-12-29, 01:29:04,VALID,999.9,VALID,0,VALID,93.6841,VALID,0,VALID,23.7384,VALID,39,VALID,0.726563,
2011-12-29, 01:30:04,VALID,999.905,VALID,0,VALID,93.6765,VALID,0,VALID,23.7189,VALID,39,VALID,0.408203,
2011-12-29, 01:31:04,VALID,999.906,VALID,0,VALID,93.6841,VALID,0,VALID,23.7189,VALID,39,VALID,0.392188,
2011-12-29, 01:32:04,VALID,999.883,VALID,0,VALID,93.7299,VALID,0,VALID,23.7189,VALID,39,VALID,0.0945313,
2011-12-29, 01:33:04,VALID,999.901,VALID,0,VALID,93.7223,VALID,0,VALID,23.7402,VALID,39,VALID,0,
2011-12-29, 01:34:04,VALID,999.87,VALID,0,VALID,93.7528,VALID,0,VALID,23.6994,VALID,39,VALID,0.298438,
2011-12-29, 01:35:04,VALID,999.877,VALID,0,VALID,93.7528,VALID,0,VALID,23.7207,VALID,39,VALID,0.0910156,
2011-12-29, 01:36:04,VALID,999.86,VALID,0,VALID,93.7528,VALID,0,VALID,23.7207,VALID,39,VALID,0.130078,
2011-12-29, 01:37:04,VALID,999.871,VALID,0,VALID,93.7528,VALID,0,VALID,23.7207,VALID,39,VALID,0.090625,
2011-12-29, 01:38:04,VALID,999.872,VALID,0,VALID,93.7833,VALID,0,VALID,23.7207,VALID,39,VALID,0.318359,
2011-12-29, 01:39:04,VALID,999.846,VALID,0,VALID,93.8138,VALID,0,VALID,23.7207,VALID,39,VALID,0.432813,
2011-12-29, 01:40:04,VALID,999.858,VALID,0,VALID,93.8062,VALID,0,VALID,23.7207,VALID,39,VALID,0.580469,
2011-12-29, 01:41:04,VALID,999.855,VALID,0,VALID,93.8062,VALID,0,VALID,23.7012,VALID,39,VALID,0.509766,
2011-12-29, 01:42:04,VALID,999.83,VALID,0,VALID,93.8138,VALID,0,VALID,23.6799,VALID,39,VALID,0.423438,
2011-12-29, 01:43:04,VALID,999.85,VALID,0,VALID,93.8062,VALID,0,VALID,23.6994,VALID,39,VALID,0.104687,
2011-12-29, 01:44:04,VALID,999.836,VALID,0,VALID,93.7909,VALID,0,VALID,23.6994,VALID,39,VALID,0,
2011-12-29, 01:45:04,VALID,999.812,VALID,0,VALID,93.7985,VALID,0,VALID,23.7207,VALID,39,VALID,0,
2011-12-29, 01:46:04,VALID,999.797,VALID,0,VALID,93.768,VALID,0,VALID,23.7207,VALID,39,VALID,0,
2011-12-29, 01:47:04,VALID,999.808,VALID,0,VALID,93.7146,VALID,0,VALID,23.6994,VALID,39,VALID,0.0886719,
2011-12-29, 01:48:04,VALID,999.774,VALID,0,VALID,93.6994,VALID,0,VALID,23.7207,VALID,39,VALID,0.530078,
2011-12-29, 01:49:04,VALID,999.772,VALID,0,VALID,93.6841,VALID,0,VALID,23.7402,VALID,39,VALID,0.309766,
2011-12-29, 01:50:04,VALID,999.762,VALID,0,VALID,93.6536,VALID,0,VALID,23.7384,VALID,39,VALID,0.325391,
2011-12-29, 01:51:04,VALID,999.751,VALID,0,VALID,93.6383,VALID,0,VALID,23.7597,VALID,39,VALID,0.445313,
2011-12-29, 01:52:04,VALID,999.734,VALID,0,VALID,93.6231,VALID,0,VALID,23.7597,VALID,39,VALID,0.411328,
2011-12-29, 01:53:04,VALID,999.755,VALID,0,VALID,93.6002,VALID,0,VALID,23.7793,VALID,39,VALID,0.305469,
2011-12-29, 01:54:04,VALID,999.767,VALID,0,VALID,93.6078,VALID,0,VALID,23.7793,VALID,40,VALID,0.566406,
2011-12-29, 01:55:04,VALID,999.758,VALID,0,VALID,93.6078,VALID,0,VALID,23.7988,VALID,40,VALID,0.572266,
2011-12-29, 01:56:04,VALID,999.736,VALID,0,VALID,93.6002,VALID,0,VALID,23.8183,VALID,40,VALID,0.454297,
2011-12-29, 01:57:04,VALID,999.78,VALID,0,VALID,93.6154,VALID,0,VALID,23.7775,VALID,40,VALID,0.160547,
2011-12-29, 01:58:04,VALID,999.769,VALID,0,VALID,93.5773,VALID,0,VALID,23.8183,VALID,40,VALID,0.204688,
2011-12-29, 01:59:04,VALID,999.804,VALID,0,VALID,93.6002,VALID,0,VALID,23.7775,VALID,40,VALID,0.493359,
2011-12-29, 02:00:04,VALID,999.804,VALID,0,VALID,93.5544,VALID,0,VALID,23.7775,VALID,40,VALID,0.517969,
2011-12-29, 02:01:04,VALID,999.784,VALID,0,VALID,93.5239,VALID,0,VALID,23.7793,VALID,52,VALID,0.841016,
2011-12-29, 02:02:04,VALID,999.751,VALID,0,VALID,93.501,VALID,0,VALID,23.7597,VALID,56,VALID,0.940625,
2011-12-29, 02:03:04,VALID,999.765,VALID,0,VALID,93.4705,VALID,0,VALID,23.7579,VALID,56,VALID,0.534766,
2011-12-29, 02:04:04,VALID,999.747,VALID,0,VALID,93.4552,VALID,0,VALID,23.7384,VALID,56,VALID,0.476563,
2011-12-29, 02:05:04,VALID,999.708,VALID,0,VALID,93.4552,VALID,0,VALID,23.7384,VALID,57,VALID,0.501562,
2011-12-29, 02:06:04,VALID,999.707,VALID,0,VALID,93.4323,VALID,0,VALID,23.7597,VALID,57,VALID,0.253125,
2011-12-29, 02:07:04,VALID,999.713,VALID,0,VALID,93.44,VALID,0,VALID,23.7597,VALID,57,VALID,0.267578,
2011-12-29, 02:08:04,VALID,999.717,VALID,0,VALID,93.4552,VALID,0,VALID,23.7402,VALID,57,VALID,0.233203,
2011-12-29, 02:09:04,VALID,999.711,VALID,0,VALID,93.4781,VALID,0,VALID,23.7597,VALID,57,VALID,0,
2011-12-29, 02:10:04,VALID,999.703,VALID,0,VALID,93.4857,VALID,0,VALID,23.7384,VALID,57,VALID,0.0105469,
2011-12-29, 02:11:04,VALID,999.726,VALID,0,VALID,93.4705,VALID,0,VALID,23.7402,VALID,57,VALID,0,
2011-12-29, 02:12:04,VALID,999.731,VALID,0,VALID,93.4857,VALID,0,VALID,23.7402,VALID,57,VALID,0,
2011-12-29, 02:13:04,VALID,999.757,VALID,0,VALID,93.5163,VALID,0,VALID,23.7402,VALID,57,VALID,0,
2011-12-29, 02:14:04,VALID,999.737,VALID,0,VALID,93.4934,VALID,0,VALID,23.7402,VALID,57,VALID,0,
2011-12-29, 02:15:04,VALID,999.737,VALID,0,VALID,93.5163,VALID,0,VALID,23.7402,VALID,57,VALID,0,
2011-12-29, 02:16:04,VALID,999.736,VALID,0,VALID,93.5086,VALID,0,VALID,23.7207,VALID,57,VALID,0,
2011-12-29, 02:17:04,VALID,999.729,VALID,0,VALID,93.4781,VALID,0,VALID,23.7012,VALID,57,VALID,0,
2011-12-29, 02:18:04,VALID,999.717,VALID,0,VALID,93.4705,VALID,0,VALID,23.6817,VALID,57,VALID,0,
2011-12-29, 02:19:04,VALID,999.701,VALID,0,VALID,93.4628,VALID,0,VALID,23.6817,VALID,57,VALID,0,
2011-12-29, 02:20:04,VALID,999.707,VALID,0,VALID,93.5315,VALID,0,VALID,23.6799,VALID,57,VALID,0,
2011-12-29, 02:21:04,VALID,999.684,VALID,0,VALID,93.5697,VALID,0,VALID,23.7012,VALID,57,VALID,0,
2011-12-29, 02:22:04,VALID,999.699,VALID,0,VALID,93.562,VALID,0,VALID,23.6994,VALID,57,VALID,0.318359,
2011-12-29, 02:23:04,VALID,999.685,VALID,0,VALID,93.562,VALID,0,VALID,23.6799,VALID,57,VALID,0.377734,
2011-12-29, 02:24:04,VALID,999.676,VALID,0,VALID,93.5849,VALID,0,VALID,23.7402,VALID,57,VALID,0.495703,
2011-12-29, 02:25:04,VALID,999.688,VALID,0,VALID,93.5468,VALID,0,VALID,23.7207,VALID,57,VALID,0.485547,
2011-12-29, 02:26:04,VALID,999.685,VALID,0,VALID,93.5086,VALID,0,VALID,23.7207,VALID,57,VALID,0.215234,
2011-12-29, 02:27:04,VALID,999.645,VALID,0,VALID,93.501,VALID,0,VALID,23.7597,VALID,57,VALID,0.292969,
2011-12-29, 02:28:04,VALID,999.663,VALID,0,VALID,93.4857,VALID,0,VALID,23.7597,VALID,57,VALID,0.172656,
2011-12-29, 02:29:04,VALID,999.672,VALID,0,VALID,93.4705,VALID,0,VALID,23.7384,VALID,57,VALID,0,
2011-12-29, 02:30:04,VALID,999.669,VALID,0,VALID,93.4781,VALID,0,VALID,23.7597,VALID,57,VALID,0,
2011-12-29, 02:31:04,VALID,999.666,VALID,0,VALID,93.4781,VALID,0,VALID,23.7793,VALID,57,VALID,0,
2011-12-29, 02:32:04,VALID,999.621,VALID,0,VALID,93.4934,VALID,0,VALID,23.7793,VALID,57,VALID,0,
2011-12-29, 02:33:04,VALID,999.619,VALID,0,VALID,93.4857,VALID,0,VALID,23.7793,VALID,57,VALID,0.599609,
2011-12-29, 02:34:04,VALID,999.618,VALID,0,VALID,93.4781,VALID,0,VALID,23.7988,VALID,117,VALID,0.813672,
2011-12-29, 02:35:04,VALID,999.613,VALID,0,VALID,93.4781,VALID,0,VALID,23.7988,VALID,117,VALID,0.803516,
2011-12-29, 02:36:04,VALID,999.605,VALID,0,VALID,93.4934,VALID,0,VALID,23.8378,VALID,117,VALID,0.575781,
2011-12-29, 02:37:04,VALID,999.597,VALID,0,VALID,93.501,VALID,0,VALID,23.8378,VALID,117,VALID,0.059375,
2011-12-29, 02:38:04,VALID,999.575,VALID,0,VALID,93.4628,VALID,0,VALID,23.8573,VALID,117,VALID,0,
2011-12-29, 02:39:04,VALID,999.595,VALID,0,VALID,93.4552,VALID,0,VALID,23.8573,VALID,117,VALID,0,
2011-12-29, 02:40:04,VALID,999.598,VALID,0,VALID,93.44,VALID,0,VALID,23.8573,VALID,117,VALID,0,
2011-12-29, 02:41:04,VALID,999.605,VALID,0,VALID,93.4552,VALID,0,VALID,23.8378,VALID,117,VALID,0,
2011-12-29, 02:42:04,VALID,999.613,VALID,0,VALID,93.4857,VALID,0,VALID,23.8573,VALID,117,VALID,0,
2011-12-29, 02:43:04,VALID,999.584,VALID,0,VALID,93.4857,VALID,0,VALID,23.8573,VALID,117,VALID,0,
2011-12-29, 02:44:04,VALID,999.568,VALID,0,VALID,93.5086,VALID,0,VALID,23.8573,VALID,117,VALID,0,
2011-12-29, 02:45:04,VALID,999.537,VALID,0,VALID,93.501,VALID,0,VALID,23.8378,VALID,117,VALID,0,
2011-12-29, 02:46:04,VALID,999.521,VALID,0,VALID,93.5468,VALID,0,VALID,23.836,VALID,117,VALID,0,
2011-12-29, 02:47:04,VALID,999.539,VALID,0,VALID,93.562,VALID,0,VALID,23.836,VALID,117,VALID,0,
2011-12-29, 02:48:04,VALID,999.547,VALID,0,VALID,93.6154,VALID,0,VALID,23.8555,VALID,117,VALID,0,
2011-12-29, 02:49:04,VALID,999.548,VALID,0,VALID,93.6307,VALID,0,VALID,23.836,VALID,117,VALID,0,
2011-12-29, 02:50:04,VALID,999.527,VALID,0,VALID,93.646,VALID,0,VALID,23.8378,VALID,117,VALID,0,
2011-12-29, 02:51:04,VALID,999.524,VALID,0,VALID,93.6383,VALID,0,VALID,23.8378,VALID,117,VALID,0,
2011-12-29, 02:52:04,VALID,999.514,VALID,0,VALID,93.6383,VALID,0,VALID,23.8378,VALID,117,VALID,0,
2011-12-29, 02:53:04,VALID,999.52,VALID,0,VALID,93.646,VALID,0,VALID,23.797,VALID,117,VALID,0,
2011-12-29, 02:54:04,VALID,999.51,VALID,0,VALID,93.646,VALID,0,VALID,23.8378,VALID,117,VALID,0,
2011-12-29, 02:55:04,VALID,999.516,VALID,0,VALID,93.6154,VALID,0,VALID,23.8183,VALID,117,VALID,0,
2011-12-29, 02:56:04,VALID,999.504,VALID,0,VALID,93.5926,VALID,0,VALID,23.8378,VALID,117,VALID,0,
2011-12-29, 02:57:04,VALID,999.493,VALID,0,VALID,93.562,VALID,0,VALID,23.8165,VALID,117,VALID,0,
2011-12-29, 02:58:04,VALID,999.52,VALID,0,VALID,93.5315,VALID,0,VALID,23.797,VALID,117,VALID,0,
2011-12-29, 02:59:04,VALID,999.546,VALID,0,VALID,93.501,VALID,0,VALID,23.8378,VALID,117,VALID,0,
2011-12-29, 03:00:04,VALID,999.554,VALID,0,VALID,93.5239,VALID,0,VALID,23.8573,VALID,117,VALID,0,
2011-12-29, 03:01:04,VALID,999.564,VALID,0,VALID,93.562,VALID,0,VALID,23.8573,VALID,117,VALID,0,
2011-12-29, 03:02:04,VALID,999.579,VALID,0,VALID,93.6002,VALID,0,VALID,23.836,VALID,117,VALID,0,
2011-12-29, 03:03:04,VALID,999.6,VALID,0,VALID,93.6154,VALID,0,VALID,23.8555,VALID,117,VALID,0,
2011-12-29, 03:04:04,VALID,999.609,VALID,0,VALID,93.6078,VALID,0,VALID,23.8573,VALID,117,VALID,0,
2011-12-29, 03:05:04,VALID,999.591,VALID,0,VALID,93.6536,VALID,0,VALID,23.8378,VALID,117,VALID,0,
2011-12-29, 03:06:04,VALID,999.598,VALID,0,VALID,93.6841,VALID,0,VALID,23.8378,VALID,117,VALID,0,
2011-12-29, 03:07:04,VALID,999.601,VALID,0,VALID,93.707,VALID,0,VALID,23.8165,VALID,117,VALID,0,
2011-12-29, 03:08:04,VALID,999.608,VALID,0,VALID,93.7146,VALID,0,VALID,23.8165,VALID,117,VALID,0,
2011-12-29, 03:09:04,VALID,999.577,VALID,0,VALID,93.7223,VALID,0,VALID,23.8165,VALID,117,VALID,0,
2011-12-29, 03:10:04,VALID,999.564,VALID,0,VALID,93.7451,VALID,0,VALID,23.8165,VALID,117,VALID,0,
2011-12-29, 03:11:04,VALID,999.571,VALID,0,VALID,93.768,VALID,0,VALID,23.8378,VALID,117,VALID,0,
2011-12-29, 03:12:04,VALID,999.571,VALID,0,VALID,93.7757,VALID,0,VALID,23.8165,VALID,117,VALID,0,
2011-12-29, 03:13:04,VALID,999.565,VALID,0,VALID,93.7985,VALID,0.104696,VALID,23.8183,VALID,117,VALID,0,
2011-12-29, 03:14:04,VALID,999.569,VALID,0,VALID,93.8367,VALID,0,VALID,23.8183,VALID,117,VALID,0,
2011-12-29, 03:15:04,VALID,999.555,VALID,0,VALID,93.8596,VALID,0,VALID,23.8183,VALID,117,VALID,0,
2011-12-29, 03:16:04,VALID,999.561,VALID,0,VALID,93.852,VALID,0,VALID,23.7775,VALID,117,VALID,0,
2011-12-29, 03:17:04,VALID,999.548,VALID,0,VALID,93.8596,VALID,0,VALID,23.7775,VALID,117,VALID,0,
2011-12-29, 03:18:04,VALID,999.559,VALID,0,VALID,93.8748,VALID,0.104696,VALID,23.7988,VALID,117,VALID,0,
2011-12-29, 03:19:04,VALID,999.562,VALID,0,VALID,93.852,VALID,0,VALID,23.7793,VALID,117,VALID,0,
2011-12-29, 03:20:04,VALID,999.562,VALID,0,VALID,93.852,VALID,0,VALID,23.7384,VALID,117,VALID,0,
2011-12-29, 03:21:04,VALID,999.546,VALID,0,VALID,93.8748,VALID,0,VALID,23.7384,VALID,117,VALID,0,
2011-12-29, 03:22:04,VALID,999.545,VALID,0,VALID,93.8901,VALID,0,VALID,23.7189,VALID,117,VALID,0,
2011-12-29, 03:23:04,VALID,999.538,VALID,0,VALID,93.9054,VALID,0,VALID,23.7189,VALID,117,VALID,0,
2011-12-29, 03:24:04,VALID,999.535,VALID,0,VALID,93.8901,VALID,0,VALID,23.6799,VALID,117,VALID,0,
2011-12-29, 03:25:04,VALID,999.489,VALID,0,VALID,93.913,VALID,0,VALID,23.6604,VALID,117,VALID,0,
2011-12-29, 03:26:04,VALID,999.503,VALID,0,VALID,93.9283,VALID,0,VALID,23.7012,VALID,117,VALID,0,
2011-12-29, 03:27:04,VALID,999.476,VALID,0,VALID,93.9435,VALID,0,VALID,23.7207,VALID,117,VALID,0,
2011-12-29, 03:28:04,VALID,999.5,VALID,0,VALID,93.9664,VALID,0,VALID,23.7207,VALID,117,VALID,0,
2011-12-29, 03:29:04,VALID,999.484,VALID,0,VALID,93.9817,VALID,0,VALID,23.7012,VALID,65,VALID,0,
2011-12-29, 03:30:04,VALID,999.483,VALID,0,VALID,93.9435,VALID,0,VALID,23.6622,VALID,50,VALID,1.54414,
2011-12-29, 03:31:04,VALID,999.448,VALID,0,VALID,93.9664,VALID,0,VALID,23.6019,VALID,42,VALID,1.39688,
2011-12-29, 03:32:04,VALID,999.441,VALID,0,VALID,94.0198,VALID,0,VALID,23.6232,VALID,46,VALID,1.43164,
2011-12-29, 03:33:04,VALID,999.427,VALID,0,VALID,94.0503,VALID,0,VALID,23.6232,VALID,46,VALID,0.704687,
2011-12-29, 03:34:04,VALID,999.412,VALID,0,VALID,94.0732,VALID,0,VALID,23.6232,VALID,46,VALID,0.369141,
2011-12-29, 03:35:04,VALID,999.398,VALID,0,VALID,94.0961,VALID,0,VALID,23.6214,VALID,128,VALID,0.813672,
2011-12-29, 03:36:04,VALID,999.393,VALID,0,VALID,94.0808,VALID,0,VALID,23.6232,VALID,130,VALID,0.642969,
2011-12-29, 03:37:04,VALID,999.419,VALID,0,VALID,94.058,VALID,0,VALID,23.6019,VALID,63,VALID,1.21211,
2011-12-29, 03:38:04,VALID,999.393,VALID,0,VALID,94.0503,VALID,0,VALID,23.6214,VALID,42,VALID,1.4957,
2011-12-29, 03:39:04,VALID,999.402,VALID,0,VALID,94.0274,VALID,0,VALID,23.6232,VALID,41,VALID,1.40977,
2011-12-29, 03:40:04,VALID,999.39,VALID,0,VALID,94.0122,VALID,0,VALID,23.6036,VALID,41,VALID,0.846094,
2011-12-29, 03:41:04,VALID,999.357,VALID,0,VALID,93.9969,VALID,0,VALID,23.5841,VALID,41,VALID,0.535156,
2011-12-29, 03:42:04,VALID,999.371,VALID,0,VALID,93.9893,VALID,0,VALID,23.6036,VALID,41,VALID,0.532812,
2011-12-29, 03:43:04,VALID,999.337,VALID,0,VALID,93.9664,VALID,0,VALID,23.5823,VALID,41,VALID,0.349609,
2011-12-29, 03:44:04,VALID,999.38,VALID,0,VALID,93.9664,VALID,0,VALID,23.6232,VALID,41,VALID,0.4625,
2011-12-29, 03:45:04,VALID,999.384,VALID,0,VALID,93.9359,VALID,0,VALID,23.6232,VALID,41,VALID,1.19609,
2011-12-29, 03:46:04,VALID,999.385,VALID,0,VALID,93.9283,VALID,0,VALID,23.6019,VALID,41,VALID,0.904297,
2011-12-29, 03:47:04,VALID,999.376,VALID,0,VALID,93.8977,VALID,0,VALID,23.6036,VALID,41,VALID,0.391797,
2011-12-29, 03:48:04,VALID,999.36,VALID,0,VALID,93.8825,VALID,0,VALID,23.5841,VALID,41,VALID,0,
2011-12-29, 03:49:04,VALID,999.366,VALID,0,VALID,93.8901,VALID,0,VALID,23.5646,VALID,41,VALID,0,
2011-12-29, 03:50:04,VALID,999.367,VALID,0,VALID,93.913,VALID,0,VALID,23.5238,VALID,41,VALID,0,